SCP
-0 -0 0 0 0 0 0 0 0 0 0 0 0 0 0 0 0 0 0 0 0 0 0 0 0 0 0 0 0 0 0 0 0 0 0 0 0 0 0 0 0 0 0
-0 -0 0 0 0 0 0 0 0 0 0 0 0 0 0 0 0 0 0 0 0 0 0 0 0 0 0 0 0 0 0 0 0 0 0 0 0 0 0 0 0 0 0
-0 -0 0 0 0 0 0 0 0 0 0 0 0 0 0 0 0 0 0 0 0 0 0 0 0 0 0 0 0 0 0 0 0 0 0 0 0 0 0 0 0 0 0
0 0 0 0 0 0 0 0 0 0 0 0 0 0 0 0 0 0 0 0 0 0 0 0 0 0 0 0 0 0 0 0 0 0 0 0 0 0 0 0 0 0 0
0 0 0 0 -0 -0 -0 0 0 0 0 0 0 0 0 0 0 0 0 0 0 0 0 0 0 0 0 0 0 0 0 0 0 0 0 0 0 0 0 0 0 0 0
0 0 0 0 -0 -0 0 0 0 0 0 0 0 0 0 0 0 0 0 0 0 0 0 0 0 0 0 0 0 0 0 0 0 0 0 0 0 0 0 0 0 0 0
0 0 0 0 0 0 0 0 0 0 0 0 0 0 0 0 0 0 0 0 0 0 0 0 0 0 0 0 0 0 0 0 0 0 0 0 0 0 0 0 0 0 0
0 0 0 0 0 0 0 0 0 0 0 0 0 0 0 0 0 0 0 0 0 0 0 0 0 0 0 0 0 0 0 0 0 0 0 0 0 0 0 0 0 0 0
0 0 0 0 0 0 0 0 0 0 0 0 0 0 0 0 0 0 0 0 0 0 0 0 0 0 0 0 0 0 0 0 0 0 0 0 0 0 0 0 0 0 0
0 0 0 0 0 0 0 0 0 0 0 0 0 0 0 0 0 0 0 0 0 0 0 0 0 0 0 0 0 0 0 0 0 0 0 0 0 0 0 0 0 0 0
-0 0 0 0 0 0 0 0 0 0 0 0 0 0 0 0 0 0 0 0 0 0 0 0 0 0 0 0 0 0 0 0 0 0 0 0 0 0 0 0 0 0 0
-0 0 0 0 0 0 0 0 0 0 0 0 0 0 0 0 0 0 0 0 0 0 0 0 0 0 0 0 0 0 0 0 0 0 0 0 0 0 0 0 0 0 0
0 0 0 0 0 0 0 0 0 0 0 0 0 0 0 -0 -0 0 0 0 0 0 0 0 0 0 0 0 0 0 0 0 0 0 0 0 0 0 0 0 0 0 0
0 0 0 0 0 0 0 0 0 0 0 0 0 0 0 -0 -0 -0 0 0 0 0 0 0 0 0 0 0 0 0 0 0 0 0 0 0 0 0 0 0 0 0 0
0 0 0 0 0 0 0 0 0 0 0 0 0 0 -0 0 0 0 0 0 0 0 0 0 0 0 0 0 0 0 0 0 0 0 0 0 0 0 0 0 0 0 0
0 0 0 0 0 0 0 0 0 0 0 0 0 0 0 0 0 0 0 0 0 0 0 0 0 0 0 0 0 0 0 0 0 0 0 0 0 0 0 0 0 0 0
0 0 0 0 0 0 0 0 0 0 0 0 0 0 0 0 0 0 0 0 0 0 0 0 0 0 0 0 0 0 0 0 0 0 0 0 0 0 0 0 0 0 0
0 0 0 0 0 0 0 0 0 0 0 0 0 0 0 0 0 0 -0 0 0 0 0 0 0 0 0 0 0 0 0 0 0 0 0 0 0 0 0 0 0 0 0
0 0 0 0 0 0 0 0 0 0 0 0 0 0 0 0 0 0 0 0 0 0 0 0 0 0 0 0 0 0 0 0 0 0 0 0 0 0 0 0 0 0 0
0 0 0 0 0 0 0 0 0 0 0 0 0 0 0 0 0 0 0 0 0 0 0 0 0 0 0 0 0 0 0 0 0 0 0 0 0 0 0 0 0 0 0
0 0 0 0 0 0 0 0 0 0 0 0 0 0 0 0 0 0 0 0 0 0 0 0 0 0 0 0 0 0 0 0 0 0 0 0 0 0 0 0 0 0 0
0 0 0 0 0 0 0 0 0 0 0 0 0 0 0 0 0 0 0 0 0 0 0 0 0 0 0 0 0 0 0 0 0 0 0 0 0 0 0 0 0 0 0
0 0 0 0 0 0 0 0 0 0 0 0 0 0 0 0 0 0 0 0 0 0 0 0 0 0 0 0 0 0 0 0 0 0 0 0 0 0 0 0 0 0 0
0 0 0 0 0 0 0 0 0 0 0 0 0 0 0 0 0 0 0 0 0 0 0 0 0 0 0 0 0 0 0 0 0 0 0 0 0 0 0 0 0 0 0
0 0 0 0 0 0 0 0 0 0 0 0 0 0 0 0 0 0 0 0 0 0 0 0 0 0 0 0 0 0 0 0 0 0 0 0 0 0 0 0 0 0 0
0 0 0 0 0 0 0 0 0 0 0 0 0 0 0 0 0 0 0 0 0 0 0 0 0 0 0 0 0 0 0 0 0 0 0 0 0 0 0 0 0 0 0
Wind_Speed
7 7 6 5 4 4 3 3 2 2 3 3 3 3 4 4 4 4 4 4 4 4 4 4 5 5 4 3 3 3 3 3 2 2 2 3 3 4 3 3 2 2 1
7 7 6 6 5 4 4 3 2 2 2 2 3 3 3 4 4 4 3 3 4 4 5 4 4 4 4 4 3 3 3 3 3 3 3 3 4 4 4 4 3 2 2
7 7 7 6 5 4 4 3 3 3 2 2 3 3 3 3 3 3 3 3 3 4 4 5 5 4 4 4 3 3 3 3 3 3 3 3 3 4 4 4 3 2 3
8 7 7 6 5 4 4 4 3 3 3 2 3 3 3 3 3 3 3 3 3 3 3 4 5 5 5 5 4 4 4 3 3 3 3 3 3 4 4 4 4 3 3
9 8 7 6 5 5 5 4 3 3 3 3 2 3 3 3 5 5 3 3 3 3 3 4 5 6 7 6 5 5 5 4 3 3 4 4 4 4 4 4 5 5 4
9 8 7 7 7 6 5 5 4 3 3 3 2 3 3 4 6 6 5 3 3 3 3 3 3 3 3 2 3 5 6 5 6 5 4 5 6 5 5 5 5 5 5
9 9 8 7 7 6 6 5 5 4 3 3 2 2 2 5 4 4 5 3 3 3 4 3 3 4 5 5 3 2 1 1 4 6 7 7 7 7 7 7 7 7 7
10 9 9 8 7 7 6 6 5 4 4 3 2 2 2 3 3 2 3 2 2 2 3 4 3 4 7 8 7 5 5 4 4 5 6 7 7 8 8 8 8 8 8
10 10 9 9 8 7 7 6 5 4 4 4 3 2 2 3 3 1 5 1 1 1 2 3 4 4 7 9 7 6 5 4 1 2 5 6 7 8 7 7 6 7 7
11 10 9 9 8 8 7 6 5 4 4 3 3 2 2 1 3 1 6 2 1 1 1 1 3 5 6 9 7 6 6 6 7 5 5 5 6 4 5 6 6 6 7
10 10 9 9 8 7 6 6 5 5 4 4 4 3 2 0 3 1 4 4 2 2 2 2 2 3 5 7 8 6 6 9 8 7 6 6 5 5 4 5 5 6 7
10 10 9 8 7 7 7 6 6 5 5 5 4 4 3 2 1 1 1 3 5 3 3 3 2 3 5 7 6 5 7 8 6 6 6 5 5 5 5 6 7 8 8
11 10 9 9 7 7 7 7 6 6 5 5 4 4 3 3 3 4 4 3 4 4 3 3 4 4 6 5 4 6 7 5 5 6 6 6 6 6 6 6 7 7 8
12 11 9 9 8 8 6 6 6 6 5 5 5 4 4 3 3 3 3 4 5 5 5 4 5 7 6 6 6 5 5 4 5 6 7 6 6 6 6 6 7 6 7
11 10 9 8 8 7 7 5 6 5 4 4 4 4 4 4 2 1 3 4 4 3 5 5 5 5 5 5 5 5 5 5 5 5 6 6 6 6 6 6 6 7 8
10 10 8 7 7 6 6 6 4 5 3 5 5 5 4 4 3 4 5 6 6 6 5 6 6 6 6 6 6 6 5 5 6 6 6 7 7 7 7 7 7 8 8
11 9 7 7 7 7 7 6 6 6 7 8 8 8 8 7 6 7 7 7 7 7 6 7 7 7 7 7 7 7 7 6 6 7 7 7 7 8 8 8 8 8 9
10 9 8 7 7 7 7 7 6 6 6 6 8 10 9 9 8 8 7 6 7 7 7 7 7 7 7 8 8 8 7 7 7 7 8 8 8 8 8 9 8 10 10
10 7 7 7 7 7 6 6 6 7 6 5 5 6 9 9 9 8 7 7 7 7 7 7 8 8 8 8 8 8 9 8 9 8 8 9 9 9 9 9 10 11 11
8 8 8 7 7 7 7 7 7 7 7 6 6 6 5 6 6 6 7 7 7 7 8 8 8 8 8 8 8 8 9 9 9 9 9 9 9 9 11 12 11 10 10
8 8 10 8 7 7 7 8 7 7 7 7 7 6 5 6 7 7 7 7 7 8 8 8 8 8 8 8 8 9 11 10 9 9 9 9 10 10 10 11 11 11 11
8 8 8 9 8 8 8 8 8 8 8 9 7 6 8 8 8 7 7 7 8 7 7 7 8 7 7 8 8 9 10 10 10 10 10 10 10 11 11 11 11 11 11
8 8 8 8 8 8 9 9 8 8 8 8 8 7 7 8 8 8 8 8 8 8 7 7 8 8 8 8 8 9 10 10 10 10 11 11 11 11 11 12 14 14 13
8 9 9 8 8 8 9 9 9 9 9 9 8 8 8 8 9 9 9 8 8 8 8 8 9 11 14 11 9 9 9 9 10 10 13 12 13 12 12 12 13 15 14
8 8 8 8 8 8 9 9 9 9 9 9 8 8 8 9 9 9 8 8 10 10 11 10 9 10 13 14 13 11 10 9 10 11 12 12 14 15 14 15 14 15 15
7 8 8 7 8 8 8 8 8 9 8 8 8 8 8 8 8 8 8 8 8 9 10 9 11 13 14 13 14 13 10 11 12 13 12 12 14 14 15 13 17 15 16
Wind_Direction
159 155 156 150 147 144 126 114 117 112 116 104 71 58 59 56 58 57 42 41 32 42 44 42 38 28 27 26 14 11 6 355 344 347 350 357 343 345 349 337 328 296 137
160 161 162 151 160 154 138 139 142 110 95 93 79 65 58 47 41 42 38 37 34 32 36 38 37 39 28 21 7 8 9 352 338 336 338 350 338 344 338 323 316 316 310
163 166 163 160 163 152 140 136 135 118 114 105 95 69 62 52 46 42 38 29 32 29 25 23 23 24 19 25 5 5 357 352 335 318 330 338 323 337 329 315 304 308 297
165 170 166 163 159 153 136 142 137 126 117 96 86 75 62 53 44 37 35 24 27 31 29 23 17 13 7 2 358 357 346 339 334 321 322 322 319 327 315 315 312 303 293
168 168 165 160 153 149 141 142 138 130 121 106 93 81 68 49 32 15 23 18 17 20 25 31 35 27 20 6 351 343 337 326 324 322 320 317 319 323 324 320 310 305 294
168 166 160 165 158 159 151 149 145 138 126 115 99 78 68 60 43 15 346 13 20 18 25 28 42 35 25 13 360 348 341 331 329 322 314 316 321 326 325 308 307 304 300
170 165 164 168 163 163 155 153 153 151 139 129 109 98 85 76 53 29 354 345 11 13 8 21 23 24 353 354 345 259 262 275 300 310 313 318 319 328 320 310 304 300 297
172 169 169 170 167 165 166 166 167 162 156 154 137 131 125 90 56 22 317 294 7 14 9 5 0 10 18 347 331 328 333 340 332 312 316 320 324 324 316 304 299 293 288
175 174 174 175 173 174 176 176 171 170 168 167 159 177 183 128 84 342 290 286 312 15 22 13 356 4 24 335 321 330 327 337 340 271 297 294 297 295 302 299 297 293 293
176 175 174 176 176 178 180 178 171 175 177 177 174 187 190 127 86 339 294 283 294 338 355 25 51 10 0 334 325 330 326 333 325 315 293 274 287 284 266 291 303 298 298
168 169 171 177 179 178 177 178 178 181 187 194 185 191 201 215 124 88 310 295 310 306 308 315 36 32 340 330 320 327 338 321 310 310 310 312 309 310 306 307 307 297 294
164 169 172 176 177 175 177 182 185 186 193 202 207 204 207 197 206 161 271 300 314 302 302 311 2 1 319 313 314 331 315 302 298 303 305 309 312 315 317 315 311 299 290
167 171 175 176 179 181 182 184 188 195 207 211 214 219 215 211 189 194 217 238 266 275 293 329 318 297 288 279 279 290 291 294 306 305 305 307 309 308 308 306 301 296 293
174 176 178 181 179 183 188 194 196 201 209 216 219 225 227 223 227 218 221 222 221 238 256 249 239 253 262 281 284 272 283 300 302 301 302 302 302 298 294 300 300 299 296
177 179 181 184 184 188 190 199 207 209 219 225 226 228 233 238 236 302 277 272 277 282 283 271 270 273 276 282 285 289 290 288 284 288 291 294 295 293 293 297 295 294 292
180 182 184 184 187 191 193 193 207 229 210 228 248 258 250 247 257 254 255 261 265 267 264 266 270 273 278 283 286 287 286 288 289 286 286 288 291 291 292 293 290 288 289
185 184 184 187 188 194 197 202 202 204 215 224 228 234 243 250 249 250 250 251 251 241 249 262 268 272 275 278 281 282 284 285 286 282 281 283 284 286 288 288 288 288 286
188 184 186 190 194 199 202 206 211 211 208 214 215 219 225 235 241 244 243 244 247 234 251 262 267 270 272 275 277 279 281 283 281 280 279 279 279 280 281 283 284 286 287
188 187 191 195 197 202 204 208 212 217 223 224 224 207 209 222 230 235 228 245 260 263 262 263 266 269 272 274 276 277 278 279 280 280 278 278 276 276 278 279 281 283 282
191 187 189 194 197 200 205 211 216 220 225 228 230 233 217 221 237 236 231 245 256 263 266 268 270 271 274 276 276 275 276 277 279 277 278 278 279 278 277 278 280 281 281
192 188 190 202 206 207 211 217 222 226 230 234 237 232 224 237 247 252 252 251 256 263 267 270 273 274 273 274 275 275 276 277 278 279 280 280 280 278 278 277 278 278 279
197 197 199 207 211 215 218 221 225 229 233 238 242 229 204 233 248 252 254 256 259 262 266 269 270 272 273 274 276 277 278 279 279 279 278 279 280 279 278 278 278 278 277
204 205 207 212 215 213 219 226 228 231 236 240 242 243 233 238 246 251 254 258 261 263 264 265 267 269 271 272 273 275 276 278 281 284 284 283 281 279 277 277 278 278 277
210 213 216 217 220 222 224 229 232 235 239 242 244 245 246 247 251 254 257 259 260 261 262 263 265 270 274 276 275 273 272 276 283 284 284 283 283 281 279 278 278 277 277
216 220 223 225 225 227 231 233 236 239 242 245 248 250 252 254 255 257 260 262 264 265 267 269 268 271 273 275 275 274 274 274 273 279 283 281 278 277 277 277 276 278 277
222 224 227 229 231 233 236 238 240 244 246 249 251 253 255 257 259 261 263 264 266 268 270 270 271 273 276 276 276 279 279 273 269 267 273 278 277 275 276 276 277 276 277